Regional Weather Roundup
Issued by NWS

Home | Current Version | Previous Version | Text Only | Print | Product List | Glossary Off
Versions: 1 2 3 4 5 6 7 8 9 10 11 12 13 14 15 16 17 18 19 20 21 22 23 24 25 26 27 28 29 30 31 32 33 34 35 36 37 38 39 40 41 42 43 44 45 46 47 48 49 50

000
ASUS43 KDTX 020301
RWRMI
MICHIGAN HOURLY REGIONAL WEATHER ROUNDUP
NATIONAL WEATHER SERVICE DETROIT/PONTIAC MI
1100 PM EDT WED APR 01 2015

NOTE: "FAIR" INDICATES FEW OR NO CLOUDS BELOW 12,000 FEET WITH NO
SIGNIFICANT WEATHER AND/OR OBSTRUCTION TO VISIBILITY.

MIZ047>049-052>055-059>063-066>070-074>076-081>083-020400-
SOUTHEAST LOWER MICHIGAN

CITY           SKY/WX    TMP DP  RH WIND       PRES   REMARKS
ADRIAN         MOCLDY    51  35  54 SW12      30.01F
ALMA           MOCLDY    55  35  46 S9        29.91S
ANN ARBOR      PTCLDY    43  35  73 CALM      30.00F
BAD AXE        MOCLDY    44  38  80 S13G20    29.96F
CARO           MOCLDY    47  38  72 S9        29.95F
DETROIT CITY   CLEAR     44  34  67 S7        30.02F
DETROIT        MOCLDY    41  33  73 SE3       30.02F
FLINT          PTCLDY    49  37  63 S10       29.96F
GROSSE ILE     PTCLDY    37  34  87 S5        30.01F WCI  34
HILLSDALE      PTCLDY    55  34  46 S7        29.99F
HOWELL         PTCLDY    48  36  64 SE9       29.97F

CITY           SKY/WX    TMP DP  RH WIND       PRES   REMARKS
JACKSON        PTCLDY    56  34  43 S12G22    29.97F
LAMBERTVILLE   MOCLDY    54  34  47 S6        30.02F
LANSING        PTCLDY    56  34  43 S13       29.95F
LAPEER         FAIR      42  37  80 S6        29.98F
MASON          PTCLDY    51  36  57 S7        29.96F
MONROE         MOCLDY    43  36  75 CALM      30.00F
MT. CLEMENS    PTCLDY    35  33  92 SE6       30.00F WCI  30
PONTIAC        MOCLDY    45  36  70 S7        29.99F
PORT HOPE        N/A     43  37  79 S10       29.94F
PORT HURON     PTCLDY    36  32  87 S6        30.02F WCI  31
TRI CITIES     MOCLDY    52  38  58 S14       29.92F
TROY           CLEAR     46  35  65 CALM      30.03F
SAGINAW HB     MOCLDY    46  37  71 S12       29.92F
$$
MIZ043>046-050>051-056>058-064>065-071>073-077>080-020400-
SOUTHWEST LOWER MICHIGAN

CITY           SKY/WX    TMP DP  RH WIND       PRES   REMARKS
BATTLE CREEK   PTCLDY    57  36  45 S14       29.96S
BENTON HARBOR  CLEAR     59  35  40 S14G21    29.91F
BIG RAPIDS     PTCLDY    54  34  46 S10       29.85F
COLDWATER      PTCLDY    53  34  47 S7        29.98S
FREMONT        FAIR      56  32  40 S7        29.85F
HOLLAND        MOCLDY    59  37  44 S13       29.90F
GRAND RAPIDS   MOCLDY    56  37  49 S12       29.91F
IONIA          FAIR      55  37  51 S12       29.91F
KALAMAZOO      PTCLDY    63  37  38 S9        29.95F
LUDINGTON      MOCLDY    62  35  36 S22G28    29.79F
MARSHALL       PTCLDY    54  35  49 S7        29.96F
MOUNT PLEASANT MOCLDY    51  36  55 SE5       29.88F
MUSKEGON       PTCLDY    62  35  36 S21G29    29.87F
SOUTH HAVEN    PTCLDY    60  34  37 S13G18    29.91F
$$
MIZ016>042-020400-
NORTHERN LOWER MICHIGAN

CITY           SKY/WX    TMP DP  RH WIND       PRES   REMARKS
ALPENA         CLOUDY    39  32  76 SE6       29.92F WCI  35
BEAVER ISLAND  CLOUDY    37  31  79 SE14      29.76F WCI  28
BELLAIRE       CLOUDY    54  33  45 S9        29.81F
CADILLAC       MOCLDY    52  34  50 S8        29.83F
CHARLEVOIX     CLOUDY    49  32  52 E8        29.83F
FRANKFORT      MOCLDY    61  27  26 S15G22    29.77F
GAYLORD        CLOUDY    46  33  60 S12       29.84F
GRAYLING       CLOUDY    47  32  55 SE7       29.86F
HARBOR SPRINGS CLOUDY    43  30  59 E5        29.83F
HOUGHTON LAKE  MOCLDY    48  32  53 SE8       29.86F
MANISTEE       MOCLDY    59  34  38 S8G17     29.79F
OSCODA         CLOUDY    44  37  77 SE6       29.93S
PELLSTON       CLOUDY    39  30  70 S3        29.84F
ROGERS CITY    CLOUDY    41  33  75 SE10      29.91F
TRAVERSE CITY  MOCLDY    54  33  45 VRB6      29.78F
$$
MIZ007>008-015-020400-
EASTERN UPPER MICHIGAN

CITY           SKY/WX    TMP DP  RH WIND       PRES   REMARKS
KINROSS        CLOUDY    34  34 100 E15       29.85F WCI  24
MACKINAC ISLAN FLURRIES  35  32  88 E13G18    29.84F WCI  26
NEWBERRY       CLOUDY    34  32  94 SE17G23   29.75F WCI  23
S. S. MARIE    FRZ RAIN  33  28  81 E10       29.87F WCI  25
$$
MIZ004>006-011>014-085-020400-
CENTRAL UPPER MICHIGAN

CITY           SKY/WX    TMP DP  RH WIND       PRES   REMARKS
MANISTIQUE     CLOUDY    35  32  88 E14G21    29.72F WCI  26
ESCANABA       CLOUDY    39  30  70 SE12      29.69F WCI  32
MENOMINEE      CLOUDY    48  36  61 S6        29.66F
SAWYER-GWINN   CLOUDY    39  33  79 S16       29.65S WCI  30
$$
MIZ001>003-009>011-084-020400-
WESTERN UPPER MICHIGAN

CITY           SKY/WX    TMP DP  RH WIND       PRES   REMARKS
IRON MOUNTAIN  CLOUDY    43  34  70 SE3       29.63F
HOUGHTON       MOCLDY    39  34  82 SE8       29.52F WCI  33
COPPER HARBOR    N/A     39  32  76 SW21G37   29.52F WCI  29
IRONWOOD       CLOUDY    57  45  62 S13G18    29.45F
$$

ABBREVIATIONS USED IN REMARKS
   TC - TEMPERATURE IN CELSIUS
  WCI - WIND CHILL INDEX
   HX - HEAT INDEX
  VSB - VISIBILITY



USA.gov is the U.S. government's official web portal to all federal, state and local government web resources and services.